EXPRESS-AM8

Last updated on Wed Aug 12 2026 00:03:02 GMT+0000 (Coordinated Universal Time)

1 40895U 15048A 26223.00108367 -.00000126 00000+0 00000+0 0 9992 2 40895 0.0031 42.5779 0000199 351.0579 272.2151 1.00271622 39895
UTC large
Height (km)
Speed (km/s)
/
Latitude / Longitude
Inclination (degrees)
Orbital Period (minutes)
Azimuth
Elevation
Range (km)
Doppler Factor

Next 0 passes for location: London (51.5072 / 0.1276)

No passes found over London.
EXPRESS-AM8